Time,TemperatureF,DewpointF,PressureIn,WindDirection,WindDirectionDegrees,WindSpeedMPH,WindSpeedGustMPH,Humidity,HourlyPrecipIn,Conditions,Clouds,dailyrainin,SoftwareType,DateUTC
2013-06-23 00:10:00,51.8,49.0,29.83,WNW,290,2.0,2.0,91,0.00,,,0.00,weatherlink.com 1.10,2013-06-23 06:10:00,
2013-06-23 00:25:00,51.9,50.0,29.83,SSW,213,3.0,5.0,92,0.00,,,0.00,weatherlink.com 1.10,2013-06-23 06:25:00,
2013-06-23 00:40:00,52.1,50.0,29.82,SW,235,2.0,5.0,92,0.00,,,0.00,weatherlink.com 1.10,2013-06-23 06:40:00,
2013-06-23 00:55:00,51.8,49.0,29.82,SSW,201,0.0,3.0,91,0.00,,,0.00,weatherlink.com 1.10,2013-06-23 06:55:00,
2013-06-23 01:10:00,51.1,49.0,29.82,SW,215,0.0,2.0,92,0.00,,,0.00,weatherlink.com 1.10,2013-06-23 07:10:00,
2013-06-23 01:25:00,51.0,49.0,29.82,WSW,248,1.0,3.0,92,0.00,,,0.00,weatherlink.com 1.10,2013-06-23 07:25:00,
2013-06-23 01:40:00,50.6,48.0,29.82,SSW,203,0.0,1.0,92,0.00,,,0.00,weatherlink.com 1.10,2013-06-23 07:40:00,
2013-06-23 01:55:00,50.3,49.0,29.82,WSW,239,0.0,3.0,94,0.00,,,0.00,weatherlink.com 1.10,2013-06-23 07:55:00,
2013-06-23 02:10:00,50.4,49.0,29.82,SW,220,1.0,2.0,93,0.00,,,0.00,weatherlink.com 1.10,2013-06-23 08:10:00,
2013-06-23 02:25:00,50.3,48.0,29.82,WNW,293,1.0,4.0,93,0.00,,,0.00,weatherlink.com 1.10,2013-06-23 08:25:00,
2013-06-23 02:41:00,49.9,48.0,29.82,SW,218,0.0,2.0,93,0.00,,,0.00,weatherlink.com 1.10,2013-06-23 08:41:00,
2013-06-23 02:56:00,49.6,48.0,29.83,WNW,284,2.0,3.0,93,0.00,,,0.00,weatherlink.com 1.10,2013-06-23 08:56:00,
2013-06-23 03:11:00,49.7,48.0,29.83,SW,228,2.0,2.0,93,0.00,,,0.00,weatherlink.com 1.10,2013-06-23 09:11:00,
2013-06-23 03:26:00,49.7,48.0,29.84,NE,56,2.0,3.0,92,0.00,,,0.00,weatherlink.com 1.10,2013-06-23 09:26:00,
2013-06-23 03:41:00,49.3,47.0,29.84,South,188,0.0,2.0,92,0.00,,,0.00,weatherlink.com 1.10,2013-06-23 09:41:00,
2013-06-23 03:56:00,49.2,47.0,29.84,SW,224,0.0,1.0,93,0.00,,,0.00,weatherlink.com 1.10,2013-06-23 09:56:00,
2013-06-23 04:11:00,48.8,47.0,29.84,SW,224,0.0,1.0,93,0.00,,,0.00,weatherlink.com 1.10,2013-06-23 10:11:00,
2013-06-23 04:26:00,48.7,46.0,29.85,West,280,0.0,2.0,91,0.00,,,0.00,weatherlink.com 1.10,2013-06-23 10:26:00,
2013-06-23 04:41:00,47.5,46.0,29.84,WSW,257,2.0,2.0,95,0.00,,,0.00,weatherlink.com 1.10,2013-06-23 10:41:00,
2013-06-23 04:56:00,47.7,47.0,29.84,SW,228,0.0,1.0,96,0.00,,,0.00,weatherlink.com 1.10,2013-06-23 10:56:00,
2013-06-23 05:11:00,47.4,46.0,29.84,WSW,248,0.0,1.0,96,0.00,,,0.00,weatherlink.com 1.10,2013-06-23 11:11:00,
2013-06-23 05:26:00,47.8,47.0,29.84,SW,226,0.0,1.0,96,0.00,,,0.00,weatherlink.com 1.10,2013-06-23 11:26:00,
2013-06-23 05:41:00,48.3,47.0,29.84,SW,221,1.0,3.0,94,0.01,,,0.01,weatherlink.com 1.10,2013-06-23 11:41:00,
2013-06-23 05:56:00,49.3,47.0,29.84,SW,229,3.0,4.0,91,0.01,,,0.01,weatherlink.com 1.10,2013-06-23 11:56:00,
2013-06-23 06:11:00,49.9,47.0,29.84,WSW,245,0.0,2.0,90,0.01,,,0.01,weatherlink.com 1.10,2013-06-23 12:11:00,
2013-06-23 06:26:00,50.8,47.0,29.83,West,263,0.0,5.0,88,0.01,,,0.01,weatherlink.com 1.10,2013-06-23 12:26:00,
2013-06-23 06:41:00,51.8,48.0,29.83,West,268,0.0,3.0,87,0.00,,,0.01,weatherlink.com 1.10,2013-06-23 12:41:00,
2013-06-23 06:56:00,53.0,49.0,29.83,SW,236,2.0,6.0,85,0.00,,,0.01,weatherlink.com 1.10,2013-06-23 12:56:00,
2013-06-23 07:11:00,53.8,48.0,29.82,SW,233,3.0,7.0,82,0.00,,,0.01,weatherlink.com 1.10,2013-06-23 13:11:00,
2013-06-23 07:26:00,54.3,48.0,29.83,West,259,5.0,9.0,80,0.00,,,0.01,weatherlink.com 1.10,2013-06-23 13:26:00,
2013-06-23 07:41:00,54.9,49.0,29.82,West,266,7.0,10.0,81,0.00,,,0.01,weatherlink.com 1.10,2013-06-23 13:41:00,
2013-06-23 07:56:00,55.8,49.0,29.82,West,265,5.0,8.0,79,0.00,,,0.01,weatherlink.com 1.10,2013-06-23 13:56:00,
2013-06-23 08:11:00,57.0,50.0,29.82,WSW,255,3.0,8.0,77,0.00,,,0.01,weatherlink.com 1.10,2013-06-23 14:11:00,
2013-06-23 08:26:00,57.9,49.0,29.82,SSW,209,1.0,9.0,72,0.00,,,0.01,weatherlink.com 1.10,2013-06-23 14:26:00,
2013-06-23 08:41:00,59.0,50.0,29.82,SW,230,2.0,9.0,71,0.00,,,0.01,weatherlink.com 1.10,2013-06-23 14:41:00,
2013-06-23 08:56:00,59.9,49.0,29.81,West,269,8.0,11.0,68,0.00,,,0.01,weatherlink.com 1.10,2013-06-23 14:56:00,
2013-06-23 09:11:00,60.9,49.0,29.81,WSW,242,5.0,11.0,65,0.00,,,0.01,weatherlink.com 1.10,2013-06-23 15:11:00,
2013-06-23 09:26:00,61.9,49.0,29.80,WNW,285,7.0,10.0,64,0.00,,,0.01,weatherlink.com 1.10,2013-06-23 15:26:00,
2013-06-23 09:42:00,63.3,50.0,29.80,West,264,4.0,10.0,63,0.00,,,0.01,weatherlink.com 1.10,2013-06-23 15:42:00,
2013-06-23 09:57:00,64.3,49.0,29.79,WSW,242,3.0,6.0,58,0.00,,,0.01,weatherlink.com 1.10,2013-06-23 15:57:00,
2013-06-23 10:12:00,65.1,49.0,29.79,WSW,244,7.0,7.0,57,0.00,,,0.01,weatherlink.com 1.10,2013-06-23 16:12:00,
2013-06-23 10:27:00,66.2,50.0,29.78,SW,236,5.0,7.0,57,0.00,,,0.01,weatherlink.com 1.10,2013-06-23 16:27:00,
2013-06-23 10:42:00,66.6,48.0,29.77,West,261,2.0,9.0,52,0.00,,,0.01,weatherlink.com 1.10,2013-06-23 16:42:00,
2013-06-23 10:57:00,67.9,48.0,29.77,SSW,212,8.0,11.0,50,0.00,,,0.01,weatherlink.com 1.10,2013-06-23 16:57:00,
2013-06-23 11:12:00,68.3,49.0,29.77,SW,234,4.0,11.0,50,0.00,,,0.01,weatherlink.com 1.10,2013-06-23 17:12:00,
2013-06-23 11:27:00,68.6,47.0,29.76,SSW,210,0.0,9.0,47,0.00,,,0.01,weatherlink.com 1.10,2013-06-23 17:27:00,
2013-06-23 11:42:00,69.4,46.0,29.76,West,273,5.0,10.0,43,0.00,,,0.01,weatherlink.com 1.10,2013-06-23 17:42:00,
2013-06-23 11:57:00,69.3,46.0,29.75,WNW,296,8.0,11.0,43,0.00,,,0.01,weatherlink.com 1.10,2013-06-23 17:57:00,
2013-06-23 12:12:00,70.5,47.0,29.75,NW,305,6.0,9.0,43,0.00,,,0.01,weatherlink.com 1.10,2013-06-23 18:12:00,
2013-06-23 12:27:00,71.1,48.0,29.74,West,260,3.0,12.0,44,0.00,,,0.01,weatherlink.com 1.10,2013-06-23 18:27:00,
2013-06-23 12:42:00,71.3,48.0,29.73,NW,306,3.0,11.0,43,0.00,,,0.01,weatherlink.com 1.10,2013-06-23 18:42:00,
2013-06-23 12:57:00,71.6,47.0,29.73,West,259,2.0,10.0,42,0.00,,,0.01,weatherlink.com 1.10,2013-06-23 18:57:00,
2013-06-23 13:12:00,71.3,45.0,29.73,NE,45,5.0,7.0,39,0.00,,,0.01,weatherlink.com 1.10,2013-06-23 19:12:00,
2013-06-23 13:27:00,71.9,46.0,29.72,West,281,5.0,7.0,39,0.00,,,0.01,weatherlink.com 1.10,2013-06-23 19:27:00,
2013-06-23 13:42:00,73.6,46.0,29.72,WSW,250,5.0,9.0,38,0.00,,,0.01,weatherlink.com 1.10,2013-06-23 19:42:00,
2013-06-23 13:57:00,73.8,46.0,29.71,West,278,2.0,9.0,37,0.00,,,0.01,weatherlink.com 1.10,2013-06-23 19:57:00,
2013-06-23 14:12:00,74.3,45.0,29.70,WSW,254,3.0,11.0,35,0.00,,,0.01,weatherlink.com 1.10,2013-06-23 20:12:00,
2013-06-23 14:27:00,74.8,45.0,29.70,WSW,257,2.0,10.0,35,0.00,,,0.01,weatherlink.com 1.10,2013-06-23 20:27:00,
2013-06-23 14:42:00,75.3,43.0,29.70,West,264,4.0,9.0,32,0.00,,,0.01,weatherlink.com 1.10,2013-06-23 20:42:00,
2013-06-23 14:57:00,75.3,44.0,29.69,SW,223,2.0,8.0,33,0.00,,,0.01,weatherlink.com 1.10,2013-06-23 20:57:00,
2013-06-23 15:13:00,75.5,44.0,29.69,West,271,2.0,8.0,33,0.00,,,0.01,weatherlink.com 1.10,2013-06-23 21:13:00,
2013-06-23 15:28:00,76.2,46.0,29.68,WSW,255,3.0,7.0,34,0.00,,,0.01,weatherlink.com 1.10,2013-06-23 21:28:00,
2013-06-23 15:43:00,77.2,47.0,29.68,WSW,253,2.0,10.0,34,0.00,,,0.01,weatherlink.com 1.10,2013-06-23 21:43:00,
2013-06-23 15:58:00,76.6,48.0,29.68,WSW,239,2.0,8.0,37,0.00,,,0.01,weatherlink.com 1.10,2013-06-23 21:58:00,
2013-06-23 16:13:00,76.7,47.0,29.67,WNW,302,1.0,8.0,35,0.00,,,0.01,weatherlink.com 1.10,2013-06-23 22:13:00,
2013-06-23 16:28:00,75.9,45.0,29.66,NW,317,0.0,4.0,33,0.00,,,0.01,weatherlink.com 1.10,2013-06-23 22:28:00,
2013-06-23 16:43:00,77.8,46.0,29.66,WSW,240,0.0,2.0,33,0.00,,,0.01,weatherlink.com 1.10,2013-06-23 22:43:00,
2013-06-23 16:58:00,77.5,45.0,29.65,NW,318,0.0,6.0,31,0.00,,,0.01,weatherlink.com 1.10,2013-06-23 22:58:00,
2013-06-23 17:13:00,78.1,46.0,29.65,West,271,2.0,5.0,32,0.00,,,0.01,weatherlink.com 1.10,2013-06-23 23:13:00,
2013-06-23 17:28:00,78.5,45.0,29.65,SW,220,2.0,4.0,30,0.00,,,0.01,weatherlink.com 1.10,2013-06-23 23:28:00,
2013-06-23 17:43:00,78.5,46.0,29.64,WNW,300,0.0,4.0,32,0.00,,,0.01,weatherlink.com 1.10,2013-06-23 23:43:00,
2013-06-23 17:58:00,79.0,47.0,29.64,West,263,1.0,5.0,32,0.00,,,0.01,weatherlink.com 1.10,2013-06-23 23:58:00,
2013-06-23 18:13:00,79.6,44.0,29.64,WSW,252,2.0,5.0,28,0.00,,,0.01,weatherlink.com 1.10,2013-06-24 00:13:00,
2013-06-23 18:28:00,78.9,43.0,29.64,NW,307,2.0,3.0,28,0.00,,,0.01,weatherlink.com 1.10,2013-06-24 00:28:00,
2013-06-23 18:43:00,78.9,43.0,29.64,NW,325,0.0,2.0,28,0.00,,,0.01,weatherlink.com 1.10,2013-06-24 00:43:00,
2013-06-23 18:58:00,80.0,43.0,29.64,NW,313,1.0,2.0,27,0.00,,,0.01,weatherlink.com 1.10,2013-06-24 00:58:00,
2013-06-23 19:13:00,80.8,44.0,29.64,SW,227,0.0,2.0,27,0.00,,,0.01,weatherlink.com 1.10,2013-06-24 01:13:00,
2013-06-23 19:28:00,78.2,43.0,29.64,SE,137,5.0,9.0,29,0.00,,,0.01,weatherlink.com 1.10,2013-06-24 01:28:00,
2013-06-23 19:43:00,77.2,45.0,29.63,SSE,165,5.0,9.0,32,0.00,,,0.01,weatherlink.com 1.10,2013-06-24 01:43:00,
2013-06-23 19:58:00,76.7,45.0,29.63,SSE,166,6.0,8.0,33,0.00,,,0.01,weatherlink.com 1.10,2013-06-24 01:58:00,
2013-06-23 20:13:00,76.3,47.0,29.63,SSE,162,3.0,7.0,36,0.00,,,0.01,weatherlink.com 1.10,2013-06-24 02:13:00,
2013-06-23 20:28:00,75.2,47.0,29.62,SE,146,2.0,5.0,37,0.00,,,0.01,weatherlink.com 1.10,2013-06-24 02:28:00,
2013-06-23 20:43:00,74.2,48.0,29.62,SE,129,2.0,5.0,39,0.00,,,0.01,weatherlink.com 1.10,2013-06-24 02:43:00,
2013-06-23 20:58:00,72.5,49.0,29.62,SE,146,1.0,2.0,43,0.00,,,0.01,weatherlink.com 1.10,2013-06-24 02:58:00,
2013-06-23 21:13:00,68.7,51.0,29.62,SE,146,0.0,1.0,54,0.00,,,0.01,weatherlink.com 1.10,2013-06-24 03:13:00,
2013-06-23 21:28:00,66.9,51.0,29.63,SSE,151,1.0,1.0,58,0.00,,,0.01,weatherlink.com 1.10,2013-06-24 03:28:00,
2013-06-23 21:43:00,66.0,50.0,29.62,SSE,151,0.0,0.0,57,0.00,,,0.01,weatherlink.com 1.10,2013-06-24 03:43:00,
2013-06-23 21:58:00,64.6,51.0,29.63,SSE,155,0.0,1.0,61,0.00,,,0.01,weatherlink.com 1.10,2013-06-24 03:58:00,
2013-06-23 22:13:00,62.4,51.0,29.63,SE,146,0.0,2.0,67,0.00,,,0.01,weatherlink.com 1.10,2013-06-24 04:13:00,
2013-06-23 22:28:00,61.8,50.0,29.63,SSE,149,0.0,0.0,65,0.00,,,0.01,weatherlink.com 1.10,2013-06-24 04:28:00,
2013-06-23 22:43:00,60.8,51.0,29.63,SE,142,1.0,2.0,69,0.00,,,0.01,weatherlink.com 1.10,2013-06-24 04:43:00,
2013-06-23 22:58:00,60.1,53.0,29.63,SE,139,0.0,1.0,78,0.00,,,0.01,weatherlink.com 1.10,2013-06-24 04:58:00,
2013-06-23 23:13:00,58.9,52.0,29.62,SE,127,0.0,1.0,77,0.00,,,0.01,weatherlink.com 1.10,2013-06-24 05:13:00,
2013-06-23 23:28:00,57.6,53.0,29.62,NE,42,0.0,1.0,84,0.00,,,0.01,weatherlink.com 1.10,2013-06-24 05:28:00,
2013-06-23 23:43:00,57.4,53.0,29.61,East,84,3.0,3.0,85,0.00,,,0.01,weatherlink.com 1.10,2013-06-24 05:43:00,
2013-06-23 23:58:00,57.9,53.0,29.61,ENE,74,3.0,-999.0,83,-99.99,,,0.01,weatherlink.com 1.10,2013-06-24 05:58:00,